Regional Weather Roundup
Issued by NWS

Home | Current Version | Previous Version | Text Only | Print | Product List | Glossary Off
Versions: 1 2 3 4 5 6 7 8 9 10 11 12 13 14 15 16 17 18 19 20 21 22 23 24 25 26 27 28 29 30 31 32 33 34 35 36 37 38 39 40 41 42 43 44 45 46 47 48 49 50

941
ASUS43 KBIS 190602
RWRND

NORTH DAKOTA REGIONAL WEATHER ROUNDUP
NATIONAL WEATHER SERVICE BISMARCK ND
1200 AM CST FRI JAN 19 2018

NOTE: "FAIR" INDICATES FEW OR NO CLOUDS BELOW 12,000 FEET WITH NO
SIGNIFICANT WEATHER AND/OR OBSTRUCTIONS TO VISIBILITY.


NDZ001>003-009>011-017-190700-
NORTHWEST NORTH DAKOTA

CITY           SKY/WX    TMP DP  RH WIND       PRES   REMARKS
WILLISTON      MOCLDY    37  25  60 SW7       29.57F
6HR MIN TEMP:  36; 6HR MAX TEMP:  59;

MINOT          CLOUDY    41  30  65 SW15      29.51F
MINOT AFB      CLOUDY    39  31  73 W14       29.50F
$$

NDZ018>021-031>035-040>046-190700-
SOUTHWEST NORTH DAKOTA

CITY           SKY/WX    TMP DP  RH WIND       PRES   REMARKS
BISMARCK       MOCLDY    26  23  88 CALM      29.61S
6HR MIN TEMP:  24; 6HR MAX TEMP:  32;

DICKINSON      MOCLDY    37  28  70 W14       29.58F
GARRISON         N/A     36  27  69 W8        29.54F
6HR MIN TEMP:  29; 6HR MAX TEMP:  36;

HETTINGER ARPT CLOUDY    35  27  72 NW6       29.63F
$$

NDZ004>008-012>016-024-026-027-054-190700-
NORTHEAST NORTH DAKOTA

CITY           SKY/WX    TMP DP  RH WIND       PRES   REMARKS
GRAND FORKS    FAIR      27  24  89 S10       29.53S WCI  17
GRND FRKS AFB  FAIR      33  26  76 SW8       29.51F
DEVILS LAKE    FAIR      31  27  85 SW10      29.53S
$$

NDZ022-023-025-028>030-036>039-047>053-190700-
SOUTHEAST NORTH DAKOTA

CITY           SKY/WX    TMP DP  RH WIND       PRES   REMARKS
FARGO          FAIR      31  26  82 S14         N/A
6HR MIN TEMP:  27; 6HR MAX TEMP:  32;

JAMESTOWN      CLOUDY    38  28  67 W10       29.56F
$$





USA.gov is the U.S. government's official web portal to all federal, state and local government web resources and services.